Location: Camaret
(48.2753°N, 4.5961°W)
Time: 00:59:11
(UTC+00:00)

Cosmos 2058 Rocket - Pass Details

Date: 29 October 2020
Orbit: 610 x 639 km, 82.5° (Epoch: 26 November)

Event Time Altitude Azimuth Distance (km) Brightness Sun altitude
Rises 18:17:27 0° 189° (S) 2,919 6.7 -12.8°
Reaches altitude 10° 18:19:40 10° 189° (S) 2,019 5.9 -13.1°
Maximum altitude 18:24:10 87° 279° (W) 647 3.1 -13.9°
Drops below altitude 10° 18:28:43 10° 9° (N) 2,043 5.6 -14.6°
Sets 18:30:59 0° 10° (N) 2,957 6.4 -15.0°
